"Time","Temp","Dewpoint","Humidity","Pressure","Direction","Speed","Gust","Precip","PrecipRate","Solar"
"00:04:59","61.3","38.7","43.2","29.87","205","3.6","10.8","0.00","0.00","0"
"00:09:58","61","38.7","43.7","29.87","190","5","10.8","0.00","0.00","0"
"00:14:56","60.8","38.7","44","29.87","185","3.9","10.4","0.00","0.00","0"
"00:19:59","60.6","39","44.8","29.86","200","3.6","7.2","0.00","0.00","0"
"00:24:58","60.4","38.9","45","29.86","193","4.4","10.8","0.00","0.00","0"
"00:29:57","60.5","39.2","45.3","29.86","198","4.2","10.8","0.00","0.00","0"
"00:34:58","60.6","39.5","45.7","29.86","172","3.7","8.4","0.00","0.00","0"
"00:39:58","60.6","39.6","45.8","29.86","194","3.6","8.1","0.00","0.00","0"
"00:44:57","60.6","39.7","46","29.86","200","3.7","9.6","0.00","0.00","0"
"00:49:57","60.6","40","46.5","29.86","197","3.1","7.2","0.00","0.00","0"
"00:54:56","60.6","39.9","46.5","29.86","212","3.4","7.2","0.00","0.00","0"
"00:59:59","60.7","40","46.4","29.86","208","4.3","8.4","0.00","0.00","0"
"01:04:57","60.8","40.4","46.9","29.85","198","3.4","7.2","0.00","0.00","0"
"01:09:56","60.9","40.5","47.1","29.85","183","3.2","7.2","0.00","0.00","0"
"01:14:58","60.9","40.9","47.7","29.85","195","3.3","6.9","0.00","0.00","0"
"01:19:56","60.9","40.7","47.4","29.85","218","3.8","8.4","0.00","0.00","0"
"01:24:59","61.1","40.9","47.4","29.85","210","4","8.4","0.00","0.00","0"
"01:29:58","61.3","41.2","47.5","29.85","216","3.9","8.1","0.00","0.00","0"
"01:34:58","61.4","41.3","47.8","29.85","223","2.4","6","0.00","0.00","0"
"01:39:57","61.3","41.3","47.8","29.85","219","2","6","0.00","0.00","0"
"01:44:57","61.2","41.5","48.3","29.85","219","1.6","5.8","0.00","0.00","0"
"01:49:56","61.1","41.3","48.2","29.85","212","2.5","4.8","0.00","0.00","0"
"01:54:56","61.1","41.4","48.2","29.85","177","2.7","4.8","0.00","0.00","0"
"01:59:59","61.1","41.2","48","29.85","189","2.9","6","0.00","0.00","0"
"02:04:58","61.2","41.4","48.2","29.85","188","2.4","6","0.00","0.00","0"
"02:09:57","61.1","41.7","48.8","29.85","193","2.7","4.8","0.00","0.00","0"
"02:14:57","61.1","41.5","48.5","29.85","189","2.3","4.8","0.00","0.00","0"
"02:19:57","61.1","41.8","49.2","29.84","198","2.7","6","0.00","0.00","0"
"02:24:57","61","41.7","49","29.84","196","2.1","4.8","0.00","0.00","0"
"02:29:56","60.9","41.8","49.3","29.84","190","0.8","2.4","0.00","0.00","0"
"02:34:56","60.8","41.9","49.7","29.84","195","1.6","6","0.00","0.00","0"
"02:39:59","60.7","41.9","50","29.84","196","0.1","1.2","0.00","0.00","0"
"02:44:59","60.5","41.8","50","29.84","196","0.3","1.2","0.00","0.00","0"
"02:49:58","60.4","41.7","50.1","29.84","196","0.8","3.6","0.00","0.00","0"
"02:54:58","60.2","42.4","51.7","29.84","196","0.4","2.4","0.00","0.00","0"
"02:59:57","59.9","42.7","52.9","29.84","256","1.3","3.6","0.00","0.00","0"
"03:04:57","59.7","42.4","53","29.84","275","0.5","2.4","0.00","0.00","0"
"03:09:57","59.4","42.5","53.5","29.84","275","0.4","2.4","0.00","0.00","0"
"03:14:57","59.2","42.6","54.1","29.85","275","0.6","2.4","0.00","0.00","0"
"03:19:57","59","43.4","56.3","29.85","275","0.2","2.3","0.00","0.00","0"
"03:24:57","58.7","43.1","56.2","29.85","275","0","0","0.00","0.00","0"
"03:29:57","58.5","43.5","57.6","29.85","275","0","0","0.00","0.00","0"
"03:34:57","58.2","43.7","58.3","29.84","275","0","0","0.00","0.00","0"
"03:39:56","58","43.1","57.5","29.84","275","0.1","1.2","0.00","0.00","0"
"03:44:57","58","42.7","56.8","29.84","275","0.4","2.4","0.00","0.00","0"
"03:49:58","58.2","43.3","57.6","29.84","275","0.1","2.3","0.00","0.00","0"
"03:54:56","58.2","43.3","57.7","29.84","275","0.2","1.2","0.00","0.00","0"
"03:59:58","58","43.8","59.2","29.85","275","0.6","2.4","0.00","0.00","0"
"04:04:56","57.8","44.1","60.3","29.85","261","0.9","3.6","0.00","0.00","0"
"04:09:59","57.7","43.4","58.8","29.85","258","0.3","1.2","0.00","0.00","0"
"04:14:58","57.7","43.6","59.3","29.85","258","0","1.2","0.00","0.00","0"
"04:19:57","57.7","44.3","61","29.85","258","0","0","0.00","0.00","0"
"04:24:58","57.7","44.5","61.3","29.85","258","0","0","0.00","0.00","0"
"04:29:57","57.5","45","63","29.85","258","0","0","0.00","0.00","0"
"04:34:58","57.4","44.2","61.3","29.85","258","0","0","0.00","0.00","0"
"04:39:58","57.3","44.5","62.3","29.85","258","0","0","0.00","0.00","0"
"04:44:58","57.2","44.2","61.7","29.85","258","0","0","0.00","0.00","0"
"04:49:58","57.2","44","61.1","29.85","258","0","0","0.00","0.00","0"
"04:54:58","57.1","44.2","62","29.85","258","0","0","0.00","0.00","0"
"04:59:58","56.9","43.8","61.4","29.85","257","0.1","1.2","0.00","0.00","0"
"05:04:57","56.9","44.5","63.3","29.84","257","0","1.2","0.00","0.00","0"
"05:09:57","56.8","45.3","65.3","29.84","257","0.2","1.2","0.00","0.00","0"
"05:14:57","56.6","44.7","64.4","29.85","257","0","0","0.00","0.00","0"
"05:19:57","56.4","43.9","62.8","29.85","257","0.1","1.2","0.00","0.00","0"
"05:24:57","56.4","43.6","62.3","29.85","257","0.2","1.2","0.00","0.00","0"
"05:29:56","56.3","43.9","63","29.85","257","0.5","1.2","0.00","0.00","0"
"05:34:56","56.4","43.7","62.5","29.85","236","0.8","2.4","0.00","0.00","0"
"05:39:56","56.6","43.6","61.8","29.85","187","1.5","6","0.00","0.00","0"
"05:44:59","56.6","43.7","62.1","29.85","203","2.5","5.8","0.00","0.00","0"
"05:49:58","56.7","43.7","61.6","29.85","187","2.7","6","0.00","0.00","0"
"05:54:58","56.9","43.7","61.2","29.85","190","2.1","4.6","0.00","0.00","0"
"05:59:57","56.9","43.7","61.2","29.86","190","1.8","3.6","0.00","0.00","0"
"06:04:59","57.1","43.9","61.3","29.86","190","1.6","3.6","0.00","0.00","0"
"06:09:56","57.1","43.8","61","29.86","190","2.1","3.6","0.00","0.00","0"
"06:14:56","57.3","43.5","59.9","29.87","190","2","3.6","0.00","0.00","0"
"06:19:55","57.6","43.9","60.4","29.87","190","1.7","3.5","0.00","0.00","0"
"06:24:56","57.7","43.9","60.1","29.87","190","2.3","3.6","0.00","0.00","0"
"06:29:59","57.7","43.6","59.2","29.87","190","1.4","3.6","0.00","0.00","0"
"06:34:55","57.7","43.7","59.6","29.87","191","1.2","4.8","0.00","0.00","5"
"06:39:59","57.7","43.6","59.3","29.87","194","1.2","6","0.00","0.00","7"
"06:44:59","57.5","43.6","59.6","29.87","195","1","2.4","0.00","0.00","7"
"06:49:58","57.5","43.3","59","29.87","195","0.7","2.4","0.00","0.00","7"
"06:54:58","57.7","43.4","59","29.87","199","1.2","8.4","0.00","0.00","7"
"06:59:57","58","43.6","58.6","29.88","205","1.4","6.9","0.00","0.00","18"
"07:04:56","58.5","43.7","57.8","29.88","212","1.8","3.6","0.00","0.00","30"
"07:09:59","58.9","43.8","57.2","29.88","216","1.5","4.8","0.00","0.00","35"
"07:14:59","59.2","43.7","56.4","29.88","217","0.1","2.3","0.00","0.00","37"
"07:19:58","59.5","43.5","55.4","29.88","217","0.2","1.2","0.00","0.00","33"
"07:24:57","59.8","44","55.7","29.88","218","0.7","3.6","0.00","0.00","37"
"07:29:57","60","44.4","56.4","29.88","219","0.4","3.6","0.00","0.00","39"
"07:34:56","60","45.2","58.1","29.88","219","0.4","2.4","0.00","0.00","37"
"07:39:56","60","45","57.5","29.88","219","0.3","2.4","0.00","0.00","47"
"07:44:59","60.2","45.4","58.1","29.89","219","1.2","2.4","0.00","0.00","54"
"07:49:58","60.2","46","59.4","29.89","219","0.8","3.6","0.00","0.00","54"
"07:54:57","60.2","45.9","59.2","29.89","207","0.7","2.4","0.00","0.00","54"
"07:59:57","60.2","45.8","59","29.90","207","0.5","2.4","0.00","0.00","62"
"08:04:59","60.3","46.2","59.5","29.90","207","0.4","2.3","0.00","0.00","86"
"08:09:59","60.5","45.8","58.3","29.90","207","0.4","4.8","0.00","0.00","113"
"08:14:59","60.8","46.1","58.3","29.90","222","2","4.8","0.00","0.00","130"
"08:19:58","61.3","46.3","57.8","29.90","207","1.9","4.8","0.00","0.00","130"
"08:24:57","61.8","46.2","56.5","29.90","336","2.4","6","0.00","0.00","162"
"08:29:56","62.3","46.6","56.5","29.90","265","3","8.4","0.00","0.00","142"
"08:34:59","62.6","46.8","56.2","29.90","290","4.5","10.8","0.00","0.00","120"
"08:39:58","62.5","46.8","56.4","29.90","282","3","8.4","0.00","0.00","65"
"08:44:56","62.3","46.4","56","29.90","328","3.4","8.4","0.00","0.00","167"
"08:49:59","62.6","47.1","56.8","29.90","283","3.4","14.4","0.00","0.00","200"
"08:54:59","63.4","47.4","56.1","29.90","308","3.3","15","0.00","0.00","334"
"08:59:57","64","47.1","54.1","29.90","328","5.7","15","0.00","0.00","346"
"09:04:59","64.4","47.2","53.6","29.90","305","5.8","12.7","0.00","0.00","408"
"09:09:59","64.8","47.3","53","29.90","303","5.9","16.1","0.00","0.00","454"
"09:14:59","65","46.9","52.1","29.90","284","4.7","12","0.00","0.00","461"
"09:19:59","65.1","46.8","51.7","29.90","300","4.3","13.2","0.00","0.00","431"
"09:24:58","65.2","46.5","50.7","29.90","291","6.7","19.6","0.00","0.00","371"
"09:29:56","65.1","46.5","51","29.91","263","5.2","16.1","0.00","0.00","371"
"09:34:59","65.2","46.4","50.7","29.91","281","5.5","17.3","0.00","0.00","309"
"09:39:58","64.9","46.9","52","29.91","273","5.5","16.1","0.00","0.00","281"
"09:44:57","65.2","46.8","51.4","29.91","328","6.8","23","0.00","0.00","399"
"09:49:56","65.1","46.6","51.2","29.91","290","5.9","15","0.00","0.00","216"
"09:54:59","65.2","46.9","51.7","29.91","301","5.9","15.6","0.00","0.00","374"
"09:59:58","65.8","46.8","50.4","29.91","290","5","12","0.00","0.00","552"
"10:04:56","66.2","47.4","50.8","29.91","312","5.3","13.2","0.00","0.00","552"
"10:09:59","66.2","47","50.1","29.91","269","5.6","18.4","0.00","0.00","606"
"10:14:59","67.4","48.1","50.1","29.91","268","4.5","13.2","0.00","0.00","636"
"10:19:57","67.8","49.1","51.1","29.91","253","4.7","10.8","0.00","0.00","642"
"10:24:57","68.2","48.8","50","29.91","316","5.3","15","0.00","0.00","765"
"10:29:59","68.1","48.6","49.8","29.92","255","2.4","6","0.00","0.00","765"
"10:34:58","67","47.4","49.5","29.92","275","4.2","10.8","0.00","0.00","701"
"10:39:57","67.3","48.3","50.6","29.92","284","5","13.2","0.00","0.00","701"
"10:44:56","67.7","48.4","50.2","29.92","311","5.1","13.2","0.00","0.00","666"
"10:49:59","68.4","49.3","50.6","29.92","236","4.7","10.8","0.00","0.00","756"
"10:54:58","68.2","46.8","46.3","29.92","281","4.8","12","0.00","0.00","779"
"10:59:56","67.1","46.2","46.9","29.92","286","4.1","15","0.00","0.00","763"
"11:04:58","67.8","48.2","49.4","29.92","238","4.4","15.6","0.00","0.00","726"
"11:09:57","68.3","47","46.4","29.92","293","4.9","16.1","0.00","0.00","707"
"11:14:57","69","47.9","47","29.92","282","5","12","0.00","0.00","708"
"11:19:56","69.6","48.7","47.5","29.92","239","4.4","12","0.00","0.00","752"
"11:24:59","70.1","48.5","46.3","29.92","283","4.3","12","0.00","0.00","833"
"11:29:58","69.5","46.6","43.9","29.93","353","5.1","16.1","0.00","0.00","889"
"11:34:57","68","45.4","44.3","29.93","296","4","13.2","0.00","0.00","183"
"11:39:56","67","45.6","46.2","29.93","322","4.9","13.2","0.00","0.00","186"
"11:44:56","67.5","46.7","47.4","29.93","322","5.9","16.8","0.00","0.00","803"
"11:49:57","69.2","48.1","47.1","29.93","290","5","17.3","0.00","0.00","770"
"11:54:56","69.6","48.3","46.6","29.93","289","4.2","10.8","0.00","0.00","756"
"11:59:58","69.6","48.2","46.5","29.93","336","5.5","13.2","0.00","0.00","765"
"12:04:56","70.1","48.3","45.9","29.92","341","6.2","16.8","0.00","0.00","795"
"12:09:59","69.4","47.2","45.1","29.92","335","4.6","10.8","0.00","0.00","816"
"12:14:59","70.4","48.5","45.8","29.92","316","5.2","18.4","0.00","0.00","814"
"12:19:58","71.4","48.7","44.7","29.92","278","5.4","15","0.00","0.00","831"
"12:24:57","70.8","46.5","41.9","29.92","280","5","13.2","0.00","0.00","896"
"12:29:59","70.4","46.4","42.4","29.92","320","5.9","12","0.00","0.00","902"
"12:34:58","69.8","44.3","39.9","29.92","318","6.4","21.6","0.00","0.00","229"
"12:39:58","69.2","45.7","43","29.92","319","4.5","20.7","0.00","0.00","900"
"12:44:57","70.5","45.9","41.3","29.92","265","6.4","14.4","0.00","0.00","863"
"12:49:59","71.4","47.2","42.2","29.92","248","4.9","15.6","0.00","0.00","824"
"12:54:58","71.4","44.9","38.7","29.92","297","6.8","14.4","0.00","0.00","833"
"12:59:57","70.9","45.1","39.7","29.92","233","5.1","13.2","0.00","0.00","853"
"13:04:59","71.3","44.3","38","29.92","283","7.2","18","0.00","0.00","891"
"13:09:58","71.3","44.2","37.8","29.92","242","6","18.4","0.00","0.00","891"
"13:14:58","72.2","44.7","37.4","29.92","275","8.8","18.4","0.00","0.00","896"
"13:19:57","70.8","43.7","37.7","29.92","315","5","18.4","0.00","0.00","916"
"13:24:56","71.4","43.8","37","29.92","290","4.6","16.8","0.00","0.00","916"
"13:29:59","70.9","42.5","35.9","29.92","336","8.7","25.3","0.00","0.00","262"
"13:34:59","70.2","43.7","38.6","29.92","334","5.1","12.7","0.00","0.00","241"
"13:39:58","70.7","43.7","37.9","29.92","327","4.9","18","0.00","0.00","819"
"13:44:57","71.8","43.3","35.9","29.92","309","6.6","18","0.00","0.00","853"
"13:49:56","72.2","43.3","35.4","29.92","327","7.7","17.3","0.00","0.00","853"
"13:54:59","72.7","44.2","36.1","29.92","329","4.4","11.5","0.00","0.00","824"
"13:59:33","72.8","43.1","34.4","29.93","321","6.8","18.4","0.00","0.00","847"
"14:04:59","71.6","42.4","34.9","29.93","287","5.7","18.4","0.00","0.00","795"
"14:09:59","71.4","43.3","36.3","29.93","324","4.8","10.8","0.00","0.00","795"
"14:14:58","72","41.5","33.3","29.93","302","6.8","16.8","0.00","0.00","793"
"14:19:57","71.1","40.6","33.1","29.93","310","7.2","17.3","0.00","0.00","793"
"14:24:56","71.7","41.3","33.4","29.93","337","9.5","19.6","0.00","0.00","812"
"14:29:58","71.9","41.8","33.7","29.93","323","6.9","18.4","0.00","0.00","779"
"14:34:58","72.2","42.6","34.4","29.93","303","6.8","19.6","0.00","0.00","761"
"14:39:57","72.9","41","31.7","29.93","343","9.9","21.9","0.00","0.00","752"
"14:44:56","72.1","40.7","32.1","29.93","346","9.5","21.9","0.00","0.00","751"
"14:49:59","72.4","41.6","32.9","29.93","316","6.2","16.1","0.00","0.00","738"
"14:54:58","72.9","41.7","32.5","29.93","300","6.4","17.3","0.00","0.00","738"
"14:59:56","72.8","43.4","34.9","29.93","286","5.1","17.3","0.00","0.00","749"
"15:04:58","72.8","42.9","34.2","29.93","285","6","16.1","0.00","0.00","749"
"15:09:57","73","42","32.8","29.93","318","8.5","23","0.00","0.00","705"
"15:14:57","72.3","40.2","31.3","29.94","336","7.1","21.9","0.00","0.00","698"
"15:19:59","72","41.3","33","29.94","286","6.2","17.3","0.00","0.00","686"
"15:24:58","72.8","41.8","32.8","29.94","307","5.6","19.6","0.00","0.00","689"
"15:29:57","72.8","41.3","32.1","29.94","351","8.8","21.9","0.00","0.00","689"
"15:34:56","72.5","40.8","31.9","29.93","332","9.7","23","0.00","0.00","657"
"15:39:59","72.7","41.4","32.5","29.93","290","6.4","16.1","0.00","0.00","663"
"15:44:58","72.9","40.1","30.6","29.93","298","6","13.2","0.00","0.00","647"
"15:49:57","73.3","41.9","32.4","29.93","313","5.1","10.8","0.00","0.00","617"
"15:54:56","73.5","42.3","32.5","29.93","295","7.2","18.4","0.00","0.00","603"
"15:59:59","73.2","41.8","32.3","29.93","336","7.5","16.1","0.00","0.00","594"
"16:04:57","72.8","41.4","32.3","29.93","338","8.2","20.7","0.00","0.00","598"
"16:09:56","72.8","41","31.7","29.93","331","6.3","15","0.00","0.00","580"
"16:14:56","72.9","42","32.8","29.93","347","4.6","15","0.00","0.00","580"
"16:19:59","74.3","44.3","34.3","29.93","268","3.9","12","0.00","0.00","575"
"16:24:58","73.8","41.8","31.7","29.93","338","7.9","20.4","0.00","0.00","580"
"16:29:56","72.9","41.6","32.3","29.94","306","6.5","21.9","0.00","0.00","531"
"16:34:59","72.7","40.6","31.4","29.94","329","5.7","12","0.00","0.00","538"
"16:39:58","72.6","41","32.1","29.94","311","5.4","17.3","0.00","0.00","512"
"16:44:58","72.5","40.5","31.5","29.94","315","6.2","16.8","0.00","0.00","490"
"16:49:56","72.2","40.1","31.3","29.94","258","6.4","17.3","0.00","0.00","489"
"16:54:59","72","39.9","31.2","29.94","321","7","16.1","0.00","0.00","455"
"16:59:57","72.5","40.3","31.4","29.94","278","4.7","15","0.00","0.00","410"
"17:04:59","72.8","40.9","31.6","29.94","305","5.4","14.4","0.00","0.00","396"
"17:09:58","72.9","40.5","31.1","29.94","339","7.7","19.6","0.00","0.00","373"
"17:14:58","72.4","39.8","30.7","29.95","334","7.8","19.6","0.00","0.00","343"
"17:19:57","72.3","40.6","31.8","29.95","328","4.8","15","0.00","0.00","329"
"17:24:56","72.4","40.8","31.9","29.95","342","4.7","15","0.00","0.00","315"
"17:29:59","72.4","40.5","31.5","29.96","327","4.2","15.6","0.00","0.00","292"
"17:34:58","72.6","41","32","29.96","303","4.2","12","0.00","0.00","278"
"17:39:57","72.6","39.6","30.3","29.96","326","6.3","17.3","0.00","0.00","288"
"17:44:56","72.3","40.3","31.4","29.96","287","4.7","11.5","0.00","0.00","290"
"17:49:59","72.2","40.2","31.3","29.96","280","4.8","14.4","0.00","0.00","283"
"17:54:58","72","39.8","31.2","29.96","335","5.1","15","0.00","0.00","278"
"17:59:56","71.9","40.1","31.7","29.96","327","6.3","16.1","0.00","0.00","274"
"18:04:59","71.8","40.4","32.1","29.96","329","5.6","15","0.00","0.00","253"
"18:09:58","71.7","40.2","32","29.96","321","4.4","12","0.00","0.00","230"
"18:14:57","71.3","40.5","32.8","29.98","315","3.1","8.4","0.00","0.00","206"
"18:19:56","71.1","41","33.7","29.98","311","4","13.2","0.00","0.00","172"
"18:24:59","70.4","39.3","32.2","29.98","304","4.6","12","0.00","0.00","167"
"18:29:58","69.7","39.7","33.6","29.98","334","3.5","12","0.00","0.00","44"
"18:34:58","69","39.4","33.9","29.98","296","3.9","11.5","0.00","0.00","98"
"18:39:57","68.6","39.8","34.9","29.98","327","2.7","8.1","0.00","0.00","104"
"18:44:56","68.6","39.6","34.8","29.98","327","4","8.4","0.00","0.00","128"
"18:49:59","68.5","39.7","34.9","29.98","308","3","7.2","0.00","0.00","58"
"18:54:58","68.4","39.9","35.2","29.98","329","2.4","6","0.00","0.00","47"
"18:59:57","68.3","38.6","33.7","29.98","330","4.2","10.8","0.00","0.00","37"
"19:04:59","68.2","38.5","33.7","29.98","334","3.5","8.4","0.00","0.00","28"
"19:09:59","68","39","34.5","29.98","332","1.8","4.8","0.00","0.00","23"
"19:14:59","67.7","39.4","35.5","29.98","341","2.9","6","0.00","0.00","19"
"19:19:58","67.3","39.4","36.1","29.98","354","1.3","7.2","0.00","0.00","18"
"19:24:58","67","39.1","36","29.98","355","1.7","6.9","0.00","0.00","16"
"19:29:57","66.7","39.5","36.8","29.99","346","1.9","4.8","0.00","0.00","16"
"19:34:57","66.4","39.7","37.5","29.99","348","1.2","4.8","0.00","0.00","12"
"19:39:57","66.1","39.3","37.3","29.99","345","0.9","4.6","0.00","0.00","11"
"19:44:57","65.7","39.5","38.2","29.99","345","0.9","3.6","0.00","0.00","7"
"19:49:57","65.3","39.6","38.9","29.99","345","1","3.6","0.00","0.00","5"
"19:54:57","64.9","39.2","38.8","29.99","345","1.1","2.4","0.00","0.00","0"
"19:59:56","64.5","39.4","39.7","30.00","345","0.5","2.4","0.00","0.00","0"
"20:04:59","64","39.6","40.6","30.00","345","0.4","3.6","0.00","0.00","0"
"20:09:59","63.5","39.9","41.8","30.00","345","0","1.2","0.00","0.00","0"
"20:14:56","62.9","39.6","42.3","30.01","345","0.4","1.2","0.00","0.00","0"
"20:19:59","62.4","39.6","43","30.01","345","0.1","1.2","0.00","0.00","0"
"20:24:56","61.9","39.7","43.9","30.01","345","0.7","2.4","0.00","0.00","0"
"20:29:59","61.5","39.8","44.8","30.01","345","0.6","2.4","0.00","0.00","0"
"20:34:56","61.1","39.9","45.6","30.01","345","0.2","1.2","0.00","0.00","0"
"20:39:56","60.7","39.8","46","30.01","345","0.1","1.2","0.00","0.00","0"
"20:44:56","60.3","39.9","46.8","30.02","345","0.4","1.2","0.00","0.00","0"
"20:49:56","59.9","40.1","47.9","30.02","345","0","0","0.00","0.00","0"
"20:54:56","59.3","40.4","49.4","30.02","345","0.2","3.6","0.00","0.00","0"
"20:59:59","58.8","40","49.6","30.03","352","1.2","6","0.00","0.00","0"
"21:04:58","58.6","40.3","50.4","30.03","356","1.5","4.8","0.00","0.00","0"
"21:09:58","58.6","39.8","49.7","30.03","334","1.8","6","0.00","0.00","0"
"21:14:58","58.6","39.8","49.5","30.04","333","0.8","3.6","0.00","0.00","0"
"21:19:57","58.7","39.7","49.3","30.04","333","1.1","3.6","0.00","0.00","0"
"21:24:57","58.7","39.9","49.6","30.04","352","1.7","6","0.00","0.00","0"
"21:29:56","58.8","39.9","49.3","30.04","355","1.4","3.6","0.00","0.00","0"
"21:34:56","59","39.9","49.1","30.04","355","1.2","4.8","0.00","0.00","0"
"21:39:59","59","40.3","49.8","30.04","359","1.3","4.8","0.00","0.00","0"
"21:44:59","58.9","40.3","50","30.05","355","1.6","3.5","0.00","0.00","0"
"21:49:58","58.7","40.6","50.8","30.05","355","1.6","3.6","0.00","0.00","0"
"21:54:58","58.6","40.5","51","30.05","355","1.8","4.8","0.00","0.00","0"
"21:59:57","58.4","40.8","51.9","30.06","355","1","4.8","0.00","0.00","0"
"22:04:56","58.1","40.9","52.8","30.06","355","0.9","2.4","0.00","0.00","0"
"22:09:56","57.7","41","53.8","30.06","355","0.3","1.2","0.00","0.00","0"
"22:14:56","57.3","41.3","55","30.06","355","0.2","1.2","0.00","0.00","0"
"22:19:56","56.9","40.9","55","30.06","355","0","1.2","0.00","0.00","0"
"22:24:56","56.6","41","55.9","30.06","355","0.1","1.2","0.00","0.00","0"
"22:29:56","56.2","41.2","57","30.07","355","0.2","2.4","0.00","0.00","0"
"22:34:56","55.8","41.1","57.7","30.07","355","0.3","1.2","0.00","0.00","0"
"22:39:56","55.4","41.2","58.8","30.07","355","0.3","1.2","0.00","0.00","0"
"22:44:56","55","41.3","59.8","30.08","355","0.1","1.2","0.00","0.00","0"
"22:49:56","54.7","41.1","60","30.08","350","0.6","4.8","0.00","0.00","0"
"22:54:56","54.7","41.3","60.5","30.08","354","0.8","6","0.00","0.00","0"
"22:59:59","54.7","41.5","61","30.08","355","0.3","3.6","0.00","0.00","0"
"23:04:58","54.7","41.5","61","30.08","0","1.7","6","0.00","0.00","0"
"23:09:58","54.9","41.8","61.3","30.08","355","2.8","8.4","0.00","0.00","0"
"23:14:58","55.2","42","61.1","30.08","337","3.3","8.4","0.00","0.00","0"
"23:19:57","55.7","42","60.1","30.08","357","3.1","10.8","0.00","0.00","0"
"23:24:56","56.1","42.1","59.3","30.08","339","3.1","12","0.00","0.00","0"
"23:29:59","56.3","42.1","59","30.08","351","1.8","7.2","0.00","0.00","0"
"23:34:59","56.4","42.2","59","30.08","327","1.6","6","0.00","0.00","0"
"23:39:59","56.3","42.1","59","30.08","352","2.1","8.4","0.00","0.00","0"
"23:44:59","56.3","42.1","59","30.09","352","3.2","8.4","0.00","0.00","0"
"23:49:58","56.3","42.1","59","30.09","354","2.3","8.1","0.00","0.00","0"
"23:54:58","56.2","42.1","59","30.09","352","0.8","4.8","0.00","0.00","0"
